Location: Santa Cristina
(46.5667°N, 11.7167°E)
Time: 06:32:40
(UTC+00:00)

Cosmos 1782 Rocket - Pass Details

Date: 21 April 2021
Orbit: 608 x 631 km, 82.5° (Epoch: 05 May)

Event Time Altitude Azimuth Distance (km) Brightness Sun altitude
Rises 01:47:26 0° 349° (N) 2,933 7.6 -22.0°
Reaches altitude 10° 01:49:41 10° 348° (NNW) 2,022 6.6 -21.7°
Maximum altitude 01:54:09 75° 264° (W) 658 3.5 -21.2°
Enters shadow 01:55:05 54° 195° (SSW) 768 3.6 -21.1°
